SCP
3 3 3 5 3 3 3 3 5 4 5 2 4 3 3 1 0 0 0 0 0 0
3 2 3 4 4 2 3 5 4 4 5 3 4 3 2 0 0 0 0 0 0 0
1 2 2 3 4 5 5 7 5 6 5 4 2 1 1 0 0 0 0 0 0 0
1 1 2 2 2 5 5 7 4 6 3 1 1 0 0 0 0 0 0 0 0 0
1 1 2 2 2 1 4 4 2 1 0 0 0 0 0 0 0 0 0 0 0 0
1 1 1 1 2 1 2 1 0 0 0 0 0 0 0 0 0 0 0 0 0 0
1 1 1 1 2 2 1 0 0 0 0 0 0 0 0 0 0 0 0 0 0 0
2 2 2 2 1 0 0 0 0 0 0 0 0 0 0 0 0 0 0 0 0 0
2 3 2 1 0 0 0 0 0 0 0 0 0 0 0 0 0 0 0 0 0 0
3 2 1 1 0 0 0 0 0 0 0 0 0 0 0 0 0 0 0 0 0 0
2 1 0 0 0 0 0 0 0 0 0 0 0 0 0 0 0 0 0 0 0 -0
1 1 0 0 0 0 0 0 0 0 0 0 0 0 0 0 0 0 0 0 -0 -0
1 1 0 0 0 0 0 0 0 0 0 0 0 0 0 0 0 -0 0 -0 -0 -0
1 0 0 0 0 0 0 0 0 0 0 0 0 0 0 0 0 0 -0 -0 -0 -0
Wind_Speed_500mb
56 53 64 64 65 59 59 56 57 67 60 49 48 44 38 37 30 31 31 24 20 12
54 58 58 66 65 68 60 57 62 64 57 50 47 49 40 32 35 28 24 26 25 15
54 49 60 63 76 68 57 56 64 63 61 62 59 50 42 38 30 29 25 22 23 14
36 44 47 58 60 75 70 65 59 72 65 70 56 50 46 42 36 33 28 22 18 19
42 41 43 50 62 56 57 58 60 64 67 65 60 56 49 43 36 33 27 23 20 19
41 37 40 46 46 42 59 64 61 53 61 65 60 59 52 46 47 39 33 28 21 18
46 38 37 46 41 50 58 68 72 71 65 72 69 52 55 56 52 43 34 26 22 22
45 41 44 59 63 51 57 50 67 76 80 66 68 67 73 57 47 32 26 27 20 20
48 47 55 54 59 48 55 33 38 57 81 81 76 53 52 52 55 41 28 23 22 27
53 50 58 63 64 48 46 38 49 77 81 76 75 81 70 65 61 51 40 38 39 36
51 54 64 68 73 62 55 80 83 79 72 93 80 71 70 69 62 57 53 48 41 37
54 56 70 75 87 86 94 88 74 74 84 81 83 71 67 65 67 61 57 53 43 41
59 70 86 87 88 90 93 96 74 61 72 66 71 62 59 61 62 64 60 58 47 42
77 83 87 83 97 98 94 87 75 86 80 76 64 56 52 53 58 64 64 60 52 48
Wind_Direction_500mb
222 220 217 214 209 207 199 200 203 194 189 196 198 199 195 203 204 209 222 220 174 145
219 216 223 220 212 220 199 195 204 189 187 188 191 194 201 186 201 209 207 199 179 166
221 222 221 224 220 216 207 190 200 180 190 187 196 194 182 195 187 193 166 173 181 164
221 232 226 216 210 202 201 183 180 183 181 194 186 192 187 192 187 183 175 166 161 153
218 232 225 212 211 216 195 187 181 183 186 192 190 191 195 188 169 170 164 155 149 129
212 219 221 206 196 205 203 194 194 196 206 195 195 192 181 169 163 156 155 151 134 122
208 209 212 196 194 198 194 208 211 209 214 198 193 186 176 167 157 147 147 137 135 125
205 192 199 191 199 196 190 209 226 218 210 211 209 186 160 150 129 129 130 114 112 116
203 196 199 202 189 198 184 201 210 223 204 190 176 166 158 155 151 157 152 130 140 141
197 195 201 194 174 168 206 200 218 192 168 170 163 171 163 155 154 159 144 159 149 136
193 189 201 190 182 174 171 185 183 181 178 162 165 155 157 163 155 148 150 149 146 143
194 191 189 182 173 174 179 185 178 170 167 157 153 159 157 154 153 148 147 140 138 133
193 183 178 173 174 172 178 172 158 166 166 154 147 154 152 152 149 150 144 133 132 129
186 181 178 174 170 172 166 162 151 163 157 153 143 150 160 160 148 144 137 132 132 120
Wind_Speed_850mb
56 53 64 64 65 59 59 56 57 67 60 49 48 44 38 37 30 31 31 24 20 12
54 58 58 66 65 68 60 57 62 64 57 50 47 49 40 32 35 28 24 26 25 15
54 49 60 63 76 68 57 56 64 63 61 62 59 50 42 38 30 29 25 22 23 14
36 44 47 58 60 75 70 65 59 72 65 70 56 50 46 42 36 33 28 22 18 19
42 41 43 50 62 56 57 58 60 64 67 65 60 56 49 43 36 33 27 23 20 19
41 37 40 46 46 42 59 64 61 53 61 65 60 59 52 46 47 39 33 28 21 18
46 38 37 46 41 50 58 68 72 71 65 72 69 52 55 56 52 43 34 26 22 22
45 41 44 59 63 51 57 50 67 76 80 66 68 67 73 57 47 32 26 27 20 20
48 47 55 54 59 48 55 33 38 57 81 81 76 53 52 52 55 41 28 23 22 27
53 50 58 63 64 48 46 38 49 77 81 76 75 81 70 65 61 51 40 38 39 36
51 54 64 68 73 62 55 80 83 79 72 93 80 71 70 69 62 57 53 48 41 37
54 56 70 75 87 86 94 88 74 74 84 81 83 71 67 65 67 61 57 53 43 41
59 70 86 87 88 90 93 96 74 61 72 66 71 62 59 61 62 64 60 58 47 42
77 83 87 83 97 98 94 87 75 86 80 76 64 56 52 53 58 64 64 60 52 48
Wind_Direction_850mb
222 220 217 214 209 207 199 200 203 194 189 196 198 199 195 203 204 209 222 220 174 145
219 216 223 220 212 220 199 195 204 189 187 188 191 194 201 186 201 209 207 199 179 166
221 222 221 224 220 216 207 190 200 180 190 187 196 194 182 195 187 193 166 173 181 164
221 232 226 216 210 202 201 183 180 183 181 194 186 192 187 192 187 183 175 166 161 153
218 232 225 212 211 216 195 187 181 183 186 192 190 191 195 188 169 170 164 155 149 129
212 219 221 206 196 205 203 194 194 196 206 195 195 192 181 169 163 156 155 151 134 122
208 209 212 196 194 198 194 208 211 209 214 198 193 186 176 167 157 147 147 137 135 125
205 192 199 191 199 196 190 209 226 218 210 211 209 186 160 150 129 129 130 114 112 116
203 196 199 202 189 198 184 201 210 223 204 190 176 166 158 155 151 157 152 130 140 141
197 195 201 194 174 168 206 200 218 192 168 170 163 171 163 155 154 159 144 159 149 136
193 189 201 190 182 174 171 185 183 181 178 162 165 155 157 163 155 148 150 149 146 143
194 191 189 182 173 174 179 185 178 170 167 157 153 159 157 154 153 148 147 140 138 133
193 183 178 173 174 172 178 172 158 166 166 154 147 154 152 152 149 150 144 133 132 129
186 181 178 174 170 172 166 162 151 163 157 153 143 150 160 160 148 144 137 132 132 120